Location: Valverde del Majano
(40.9569°N, 4.2347°W)
Time: 17:23:28
(UTC+00:00)

Daily predictions for brighter satellites

Satellite Brightness Start Highest point End
(mag) Time Altitude Azimuth Time Altitude Azimuth Time Altitude Azimuth
IGS 5A 3.7 20:21:26 10° S 20:25:34 71° W 20:29:43 10° NNW
Cosmos 1300 4.1 20:22:54 10° NNE 20:25:55 22° ENE 20:28:54 10° SE
Cosmos 1943 Rocket 3.2 20:23:53 10° NW 20:29:14 45° WSW 20:34:30 10° S
OBJECT-B 3.4 20:27:30 10° SW 20:29:22 16° W 20:31:15 10° NW
Cosmos 1908 3.2 20:25:44 10° N 20:29:35 84° E 20:33:26 10° S
Cosmos 405 Rocket 3.9 20:30:19 10° SSW 20:34:10 49° WNW 20:38:05 10° N
Cosmos 1943 3.2 20:28:57 10° S 20:34:33 65° ESE 20:40:09 10° NNE
Sich 1 Rocket 4.3 20:30:55 10° NNW 20:35:25 60° W 20:39:55 10° S
Cosmos 1953 2.6 20:33:02 10° N 20:36:52 48° E 20:40:41 10° SSE
Cosmos 1603 3.8 20:32:57 10° S 20:38:31 62° ESE 20:44:10 10° NNE
Resurs 1-3 4.2 20:35:19 10° S 20:39:38 58° W 20:43:58 10° NNW
Lacrosse 5 4.4 20:37:50 10° NNW 20:40:43 15° NNE 20:43:34 10° NE
Cosmos 1745 Rocket 4.4 20:35:07 10° N 20:41:01 47° ENE 20:46:54 10° SSE
IRS-1A Rocket 4.5 20:35:31 10° SSE 20:41:21 70° ENE 20:47:15 10° N
Cosmos 1975 Rocket 4.4 20:40:09 10° SE 20:43:40 23° E 20:47:11 10° NE
Intercosmos 25 4.2 20:43:07 10° NNW 20:46:11 40° W 20:49:20 10° SSW
Ariane Rocket 3.2 20:42:42 10° SSE 20:47:41 59° ENE 20:52:42 10° N
CARTOSAT-1 4.3 20:44:35 11° SE 20:48:24 38° ENE 20:52:23 10° N
H-2A R/B 2.4 20:45:21 10° N 20:49:42 74° WNW 20:54:08 10° SSW
X-37B 2.6 20:48:44 10° SSE 20:48:55 11° SSE 20:48:55 11° SSE
USA 308 3.2 20:47:32 10° WNW 20:51:37 55° SW 20:55:11 13° SSE
USA 305 3.6 20:47:48 10° WNW 20:51:44 43° SW 20:55:21 12° SSE
Resurs 01 Rocket 1.6 20:47:41 10° SSE 20:52:07 90° WSW 20:56:35 10° NNW
Cosmos 292 Rocket 4.4 20:49:57 10° SSW 20:54:37 58° WNW 20:59:19 10° NNE
Lacrosse 4 Rocket 2.1 20:50:32 10° SW 20:54:39 58° WNW 20:58:42 10° NNE
Okean 2 Rocket 4.2 20:51:11 10° NNW 20:55:25 45° W 20:59:37 10° SSW
IRAS Rocket 4.3 20:50:42 10° NNE 20:56:17 63° ESE 21:01:47 10° S
Tiangong 1.1 20:53:14 10° WSW 20:56:22 58° SSE 20:59:31 10° E
DELTA 2 R/B (1) 3.6 20:53:46 10° W 20:59:21 73° S 21:04:45 11° ESE
FALCON 9 DEB 3.2 21:00:16 10° WSW 21:03:31 71° NW 21:06:46 10° NE
CZ-3 Stage 3 4.4 21:00:44 10° W 21:05:49 17° SW 21:08:17 10° S
Terra 3.3 21:02:52 13° ESE 21:05:56 23° ENE 21:09:37 10° NNE
Meteor 1-24 Rocket 4.2 21:06:09 14° SSE 21:10:05 36° E 21:14:56 10° NNE
Cosmos 2315 Rocket 4.3 21:05:12 10° SSE 21:11:11 49° E 21:17:14 10° NNE
USA 267 3.2 21:06:13 10° NE 21:12:44 64° SE 21:19:11 10° SW
Cosmos 1455 4.1 21:11:00 10° NE 21:13:21 16° ENE 21:14:42 13° E
Cosmos 2369 Rocket 2.8 21:09:06 10° NNW 21:14:31 52° WSW 21:19:53 10° S
Cosmos 1371 Rocket 4.4 21:11:06 11° S 21:15:40 41° ESE 21:20:36 10° NNE
SL-24 R/B 4.0 21:12:36 15° SSE 21:16:06 88° ENE 21:20:29 10° NNW
Longmarch 3A Rocket 4.0 21:15:12 10° S 21:15:29 11° S 21:15:29 11° S
Spot 2 Rocket 4.0 21:15:27 18° SE 21:18:55 46° ENE 21:23:47 10° N
ERBS 2.3 21:16:55 10° NW 21:19:52 54° SW 21:21:15 27° SSE
ATLAS 3B CENTAUR R/B 4.4 21:09:30 10° W 21:21:26 35° SSW 21:27:49 18° SSE
ARIANE 5 R/B 4.0 21:23:37 17° ESE 21:25:51 25° ENE 21:29:30 10° NNE
SPOT 3 Rocket 3.5 21:22:41 17° SSE 21:26:42 85° ENE 21:31:56 10° NNW
Cosmos 2084 4.1 21:26:52 26° SE 21:27:25 27° ESE 21:30:42 10° ENE
Lacrosse 5 rocket 3.5 21:25:33 10° NNW 21:28:17 18° NNE 21:31:06 10° ENE
CZ-4B R/B 3.3 21:26:34 10° NNW 21:29:01 25° WNW 21:31:26 10° SW
Cosmos 1709 Rocket 4.0 21:24:40 10° N 21:30:51 71° E 21:35:24 19° SSE
Meteor 2-12 Rocket 4.4 21:25:36 10° N 21:31:41 87° W 21:36:41 16° S
Cosmos 2251 Rocket 3.8 21:26:59 10° NNW 21:32:17 66° WSW 21:36:18 18° S
Cosmos 1624 Rocket 4.0 21:32:53 13° S 21:37:24 61° ESE 21:42:34 10° NNE
ATLAS 2AS CENTAUR R/B 3.8 21:33:17 10° NNW 21:39:47 36° NE 21:44:51 14° ESE
GENESIS II 4.3 21:37:52 10° NNW 21:41:56 70° ENE 21:43:39 32° SE
Cosmos 1190 Rocket 4.2 21:39:37 10° NNW 21:44:54 62° ENE 21:47:39 28° SE
USA 234 4.3 21:39:21 10° E 21:45:21 40° NNE 21:51:21 10° NW
NOSS 3-4 (A) 4.0 21:38:31 10° NW 21:45:40 75° WSW 21:51:03 23° SSE
NOSS 3-4 (C) 4.0 21:38:36 10° NW 21:45:45 75° WSW 21:51:05 23° SSE
USA 245 4.3 21:45:08 18° S 21:49:02 60° WSW 21:53:27 10° NNW
Meteor 2-10 Rocket 4.2 21:45:51 10° NNW 21:50:43 49° W 21:54:29 16° SSW
Atlas Centaur 2 3.1 21:48:10 10° SW 21:50:05 16° SSW 21:50:05 16° SSW
Cosmos 407 Rocket 3.5 21:46:52 10° NNW 21:52:03 76° WSW 21:54:51 27° S
Cosmos 1455 Rocket 3.1 21:48:05 10° NNW 21:52:26 74° W 21:54:41 27° S
SPOT 5 2.7 21:52:00 29° S 21:54:21 81° WSW 21:58:47 10° NNW
Cosmos 2056 Rocket 3.5 21:52:03 12° SSW 21:57:03 89° W 22:02:30 10° NNE
Meteor 2-5 Rocket 3.9 21:53:57 12° SSW 21:59:08 69° W 22:04:40 10° N
Cosmos 1025 Rocket 3.5 21:57:09 18° SSW 22:00:14 59° W 22:04:28 10° N
Cosmos 1271 Rocket 3.1 21:56:26 10° N 22:00:20 52° ENE 22:01:15 41° ESE
ERS-1 Rocket 3.1 22:04:36 29° S 22:07:10 72° WSW 22:12:13 10° NNW
USA 32 4.1 22:04:44 22° SSW 22:08:07 75° W 22:13:22 10° N
Cosmos 1420 Rocket 4.0 22:05:26 18° SSW 22:09:21 87° WNW 22:14:39 10° NNE
Cosmos 676 Rocket 4.1 22:06:06 10° NNW 22:11:24 64° ENE 22:13:24 37° SE
Cosmos 1607 4.0 22:08:21 10° SW 22:14:37 79° WNW 22:20:50 10° NNE
Cosmos 1536 Rocket 3.5 22:13:48 47° SSE 22:14:45 62° E 22:19:02 10° NNE
Cosmos 1140 Rocket 4.3 22:10:28 10° NNW 22:15:21 42° WSW 22:17:57 24° SSW
CZ-2C R/B 4.3 22:16:29 10° N 22:20:59 54° WNW 22:23:59 20° SW
Helios 1A Rocket 4.0 22:19:57 27° SW 22:21:29 37° W 22:25:17 10° NNW
Lacrosse 5 3.1 22:20:18 10° NNW 22:25:02 36° NE 22:27:55 20° E
Cosmos 724 4.1 22:24:23 23° SSW 22:28:04 78° ESE 22:33:52 10° NE
SAR-Lupe-4 3.6 22:25:58 10° NNE 22:29:21 64° E 22:29:21 64° E
Cosmos 2184 Rocket 3.9 22:25:17 10° N 22:31:27 75° E 22:33:49 40° SSE
Cosmos 1954 Rocket 4.0 22:27:34 10° NNW 22:32:51 76° WSW 22:34:28 45° S
Tiangong 1.9 22:30:02 10° W 22:32:27 47° WNW 22:32:27 47° WNW
TSX-5 4.1 22:33:05 55° ESE 22:33:15 56° ESE 22:38:13 10° NNE
Meteor 1-21 Rocket 4.3 22:35:48 44° SE 22:37:10 56° E 22:42:39 10° NNE
CSL-04 DEB 4.4 22:33:40 10° NNE 22:38:02 89° ESE 22:38:53 57° SSW
Cosmos 1703 3.0 22:38:48 82° SSE 22:38:57 86° E 22:42:50 10° N
Cosmos 2228 3.1 22:36:44 10° N 22:40:54 56° E 22:41:10 55° E
Terra 2.8 22:41:46 29° SW 22:43:26 38° W 22:47:53 10° NNW
SAR-Lupe-1 4.2 22:41:30 10° N 22:45:03 65° WNW 22:45:12 64° W
DELTA 2 R/B (1) 4.2 22:40:20 10° W 22:45:27 37° SSW 22:45:29 37° SSW
ALOS 2 4.4 22:46:37 19° E 22:47:20 20° ENE 22:50:33 10° NNE
Cosmos 1455 3.4 22:45:29 10° NNW 22:48:54 32° W 22:49:28 30° WSW
Molniya-1 4.5 22:50:49 43° SSW 22:52:28 75° ESE 23:04:06 10° NE
Cosmos 1726 Rocket 4.3 22:49:30 10° N 22:53:32 37° ENE 22:53:36 37° E
USA 267 4.4 22:49:26 10° NE 22:55:32 43° NNW 23:01:37 10° W
Cosmos 1980 Rocket 4.2 22:51:58 10° N 22:56:01 19° NE 22:59:14 13° E
Cosmos 1331 Rocket 4.1 22:57:22 54° SE 22:57:54 57° ESE 23:03:07 10° NNE
RESURS DK-1 3.6 22:54:55 10° N 22:58:37 31° ENE 22:59:03 30° ENE
Cosmos 1452 Rocket 3.5 22:57:19 44° SSW 22:59:01 79° WNW 23:04:18 10° NNE
Cosmos 1697 Rocket 3.7 22:55:37 10° N 23:00:49 37° ENE 23:02:42 29° E
ARIANE 5 R/B 3.9 23:01:09 28° WSW 23:02:09 30° W 23:06:06 10° NW
Spot 4 4.2 23:04:25 48° E 23:05:01 51° ENE 23:09:39 10° N
Cosmos 1892 4.5 23:06:34 22° ENE 23:06:34 22° ENE 23:08:36 10° NNE
Lacrosse 5 rocket 1.4 23:03:44 10° NW 23:07:17 70° WNW 23:07:17 70° WNW
NOSS 2-1 (C) 4.1 23:02:59 10° NW 23:07:52 84° WSW 23:09:23 53° SSE
ADEOS Rocket 4.1 23:05:35 30° ESE 23:08:28 43° ENE 23:15:23 10° N
ASTEX 1 3.4 23:05:45 10° N 23:10:46 84° W 23:11:35 63° SSW
Meteor 2-1 Rocket 4.0 23:10:29 10° N 23:16:01 90° ENE 23:17:01 62° S
Cosmos 1110 Rocket 3.9 23:15:12 61° SSW 23:16:08 88° W 23:21:27 10° NNE
Cosmos 2181 Rocket 4.5 23:15:17 39° ESE 23:16:21 43° E 23:22:06 10° NNE
Cosmos 2058 Rocket 3.9 23:12:39 10° N 23:16:43 39° ENE 23:16:43 39° ENE
NOSS 2-1 (D) 4.2 23:13:19 10° NW 23:18:15 72° WSW 23:19:29 56° S
Cosmos 1302 Rocket 4.5 23:21:10 43° E 23:21:10 43° E 23:25:54 10° NNE
Cosmos 1892 Rocket 3.5 23:22:22 76° ENE 23:22:22 76° ENE 23:26:37 10° N
GP-B 3.0 23:18:38 10° N 23:23:05 87° W 23:23:05 87° W
Cosmos 1833 Rocket 2.6 23:26:16 53° SW 23:27:37 82° WNW 23:33:16 10° NNE
Cosmos 1656 3.6 23:22:13 10° NNW 23:27:38 63° WSW 23:28:19 58° SW
USA 234 3.2 23:26:11 49° SSE 23:28:03 73° SW 23:34:37 10° NW
ATLAS 2AS CENTAUR R/B 2.9 23:24:13 10° NW 23:30:56 51° WSW 23:32:16 45° SSW
Okean 1-7 Rocket 4.3 23:39:49 42° ENE 23:39:49 42° ENE 23:43:30 10° NNE
Cosmos 2082 Rocket 2.4 23:41:32 54° ESE 23:41:44 54° ESE 23:47:18 10° NNE
Cosmos 962 Rocket 4.5 23:37:07 10° N 23:43:19 77° W 23:44:40 56° SSW
Cosmos 1741 Rocket 4.4 23:41:55 10° NNW 23:47:02 49° WSW 23:47:22 49° WSW
Meteor 1-27 4.5 23:45:04 10° N 23:50:32 55° ENE 23:51:21 50° ESE
Cosmos 1869 4.4 23:47:59 10° N 23:50:55 36° NE 23:50:55 36° NE
BREEZE-M DEB (TANK) 4.2 23:40:58 10° WSW 23:54:37 75° NNW 23:58:27 10° NE
